Regional Weather Roundup
Issued by NWS

Home | Current Version | Previous Version | Graphics & Text | Print | Product List | Glossary On
Versions: 1 2 3 4 5 6 7 8 9 10 11 12 13 14 15 16 17 18 19 20 21 22 23 24 25 26 27 28 29 30 31 32 33 34 35 36 37 38 39 40 41 42 43 44 45 46 47 48 49 50
000
ASUS45 KABQ 251401
RWRNM
NEW MEXICO REGIONAL WEATHER ROUNDUP
NATIONAL WEATHER SERVICE ALBUQUERQUE NM
800 AM MDT TUE JUL 25 2017

NOTE: "FAIR" MEANS FEW OR NO CLOUDS BELOW 12,000 FEET AGL WITH NO
       SIGNIFICANT WEATHER OR OBSTRUCTIONS TO VISION.

      THIS PRODUCT IS RELEASED AS TWO VERSIONS.  ONE VERSION NEAR
      THE TOP OF THE HOUR CONTAINING PRELIMINARY DATA FROM ALBUQUERQUE
      AND OTHER STATIONS.  A FINAL VERSION WITH ADDITIONAL DATA IS
      ISSUED ABOUT 10 MINUTES AFTER THE HOUR.

NMZ501-503-504-510>518-251500-
NORTHWEST PLATEAU/NORTHCENTRAL MOUNTAINS

CITY           SKY/WX    TMP DP  RH WIND       PRES   REMARKS
FARMINGTON     PTSUNNY   66  61  84 E8        30.21S
LOS ALAMOS     FAIR      64  55  72 CALM      30.35S
SANTA FE       FAIR      68  62  81 N9        30.29R
TAOS           FAIR      59  50  72 CALM      30.35S
ANGEL FIRE     FAIR      56  52  86 CALM      30.44S

$$
NMZ402-403-502-505>509-251500-
WESTCENTRAL MOUNTAINS/SOUTHWEST MOUNTAINS

CITY           SKY/WX    TMP DP  RH WIND       PRES   REMARKS
GALLUP         PTSUNNY   63  60  90 S5        30.30R
GRANTS         FAIR      64  58  81 CALM      30.32S
SILVER CITY    FAIR      67  61  83 N3        30.25R

$$
NMZ407-409-411-412-251500-
SOUTHERN DESERTS

CITY           SKY/WX    TMP DP  RH WIND       PRES   REMARKS
DEMING         FAIR      71  67  87 SW3       30.19R
LAS CRUCES     PTSUNNY   72  63  73 SW3       30.20R
HOLLOMAN AFB   FAIR      77  66  69 SW6       30.18R
ALAMOGORDO     FAIR      73  63  68 SE3       30.18S
T OR C         FAIR      72  61  68 S7        30.19R

$$
NMZ519>523-251500-
CENTRAL VALLEYS/CENTRAL HIGHLANDS

CITY           SKY/WX    TMP DP  RH WIND       PRES   REMARKS
ALBUQUERQUE    PTSUNNY   71  61  70 S10       30.24R
DOUBLE EAGLE   PTSUNNY   73  57  56 VRB5      30.27R
MORIARTY ARPT  FAIR      69  59  70 CALM      30.30R
CLINES CORNERS FAIR      69  56  62 W15       30.34R
BELEN          NOT AVBL
SOCORRO        FAIR      71  63  75 SE8       30.20R

$$
NMZ524>526-539-540-251500-
SOUTHCENTRAL MOUNTAINS

CITY           SKY/WX    TMP DP  RH WIND       PRES   REMARKS
RUIDOSO        FAIR      66  57  72 N5        30.35R

$$
NMZ527>531-251500-
NORTHEAST HIGHLANDS/NORTHEAST PLAINS

CITY           SKY/WX    TMP DP  RH WIND       PRES   REMARKS
RATON          FAIR      67  56  67 SE5       30.25S
CLAYTON        FAIR      74  62  66 SW13      30.16R

$$
NMZ532>537-251500-
EASTCENTRAL PLAINS

CITY           SKY/WX    TMP DP  RH WIND       PRES   REMARKS
SANTA ROSA     FAIR      74  60  61 CALM      30.18R
TUCUMCARI      PTSUNNY   79  63  57 SW13      30.11R
CANNON AFB     NOT AVBL
CLOVIS AIRPORT FAIR      74  65  73 S10       30.17R

$$
NMZ028-029-538-251500-
SOUTHEAST PLAINS

CITY           SKY/WX    TMP DP  RH WIND       PRES   REMARKS
ROSWELL        FAIR      79  60  52 S18       30.11R
ARTESIA        FAIR      79  64  61 SE14      30.12R
CARLSBAD       FAIR      77  67  71 SE8       30.10R
HOBBS          SUNNY     75  61  60 S10       30.15R


$$




USA.gov is the U.S. government's official web portal to all federal, state and local government web resources and services.